Weather History for Hyannis, MA

Change the Weather History Date:

Sunday, August 10, 2014

  Actual Average Record
Temperature  
Mean Temperature 70 °F -  
Max Temperature 80 °F 78 °F 99 °F (1949)
Min Temperature 60 °F 64 °F 38 °F (1964)
Cooling Degree Days 5    
Growing Degree Days 20 (Base 50)    
Moisture  
Dew Point 61 °F    
Average Humidity 75    
Maximum Humidity 90    
Minimum Humidity 45    
Precipitation  
Precipitation 0.00 in - - ()
Sea Level Pressure  
Sea Level Pressure 30.10 in    
Wind  
Wind Speed 3 mph (North)    
Max Wind Speed 12 mph    
Max Gust Speed -    
Visibility 10 miles    
Events      
Averages and records for this station are not official NWS values.
T = Trace of Precipitation, MM = Missing Value Source: NWS Daily Summary

Daily Weather History Graph

Daily Weather History Graph

Search for Another Location

Airport:

Trip Planner

Search our weather history database for the weather conditions in past years. The results will help you decide how hot, cold, wet, or windy it might be!

Date:

Astronomy

Aug. 10, 2014 Rise Set
Actual Time 5:44 AM EDT 7:47 PM EDT
Civil Twilight 5:14 AM EDT 8:18 PM EDT
Nautical Twilight 4:36 AM EDT 8:55 PM EDT
Astronomical Twilight 3:56 AM EDT 9:35 PM EDT
Moon 7:31 PM EDT (8/10) 5:33 AM EDT (8/10)
Length of Visible Light 15h 04m
Length of Day
14h 03m
Full, 100% of the Moon is Illuminated
Aug 10
Full
Aug 10
Full
Aug 17
Last Quarter
Aug 25
New
Sep 2
First Quarter

Hourly Weather History & Observations

Time (EDT) Temp. Heat Index Dew Point Humidity Pressure Visibility Wind Dir Wind Speed Gust Speed Precip Events Conditions
12:56 AM 66.0 °F - 62.1 °F 87% 30.08 in 10.0 mi Calm Calm - N/A   Partly Cloudy
1:56 AM 63.0 °F - 60.1 °F 90% 30.08 in 10.0 mi Calm Calm - N/A   Clear
2:56 AM 62.1 °F - 59.0 °F 90% 30.07 in 10.0 mi Calm Calm - N/A   Clear
3:56 AM 63.0 °F - 60.1 °F 90% 30.08 in 10.0 mi Calm Calm - N/A   Partly Cloudy
4:56 AM 62.1 °F - 59.0 °F 90% 30.07 in 10.0 mi Calm Calm - N/A   Clear
5:56 AM 60.1 °F - 57.0 °F 90% 30.08 in 10.0 mi Calm Calm - N/A   Clear
6:56 AM 66.0 °F - 62.1 °F 87% 30.08 in 10.0 mi Calm Calm - N/A   Clear
7:56 AM 71.1 °F - 64.9 °F 81% 30.09 in 10.0 mi NNW 5.8 mph - N/A   Clear
8:56 AM 72.0 °F - 63.0 °F 73% 30.10 in 10.0 mi NNW 6.9 mph - N/A   Clear
9:56 AM 73.0 °F - 63.0 °F 71% 30.10 in 10.0 mi North 9.2 mph - N/A   Clear
10:56 AM 73.0 °F - 63.0 °F 71% 30.12 in 10.0 mi North 11.5 mph - N/A   Clear
11:56 AM 73.9 °F - 64.0 °F 71% 30.12 in 10.0 mi NNW 9.2 mph - N/A   Clear
12:56 PM 77.0 °F - 64.9 °F 66% 30.11 in 10.0 mi North 9.2 mph - N/A   Clear
1:56 PM 79.0 °F - 62.1 °F 56% 30.11 in 10.0 mi NNE 9.2 mph - N/A   Clear
2:56 PM 79.0 °F - 60.1 °F 52% 30.10 in 10.0 mi North 9.2 mph - N/A   Clear
3:56 PM 78.1 °F - 61.0 °F 56% 30.11 in 10.0 mi North 6.9 mph - N/A   Clear
4:56 PM 80.1 °F 80.4 °F 57.0 °F 45% 30.10 in 10.0 mi NNE 8.1 mph - N/A   Clear
5:56 PM 79.0 °F - 55.9 °F 45% 30.10 in 10.0 mi NNE 5.8 mph - N/A   Clear
6:56 PM 77.0 °F - 60.1 °F 56% 30.10 in 10.0 mi Calm Calm - N/A   Clear
7:56 PM 71.1 °F - 63.0 °F 75% 30.10 in 10.0 mi Calm Calm - N/A   Clear
8:56 PM 66.9 °F - 60.1 °F 79% 30.12 in 10.0 mi Calm Calm - N/A   Clear
9:56 PM 64.0 °F - 61.0 °F 90% 30.13 in 10.0 mi Calm Calm - N/A   Clear
10:56 PM 63.0 °F - 60.1 °F 90% 30.14 in 10.0 mi Calm Calm - N/A   Mostly Cloudy
11:56 PM 63.0 °F - 60.1 °F 90% 30.14 in 10.0 mi Calm Calm - N/A   Mostly Cloudy